Zurück zum Katalog

STARLINK-36557

AktivKommunikationVLEO
NORAD 67500·PAYLOAD·🇺🇸 United States

Gestartet Jan 18, 2026 von Cape Canaveral Space Force Station

Loading…

Nächste Überflüge (nächste 24 Stunden)

TLE

AktuellSource: CelesTrak SupGP

Epoche: Sep 14, 2026, 21:25 UTC

1 67500C 26012H   26257.89284722 -.00022500  00000+0 -81495-3 0  2570
2 67500  43.0015 325.9179 0001550 267.5527 236.2945 15.27589524    14

Verfolge STARLINK-36557 in Echtzeit mit AllMySat

Download on the App Store